User: anonymous   Login
Location: Peebles
(55.6412°N, 3.1714°W)
Time: 13:57:39
(UTC+00:00)
Language:

Cosmos 2227 Rocket - Orbit

View from above orbital plane
View from above orbital plane
View from above satellite
View from above satellite

Ground track
Ground track

The orbit data is extracted from the following two-line orbital elements,

1 22285U 92093B   21342.09779742  .00000012  00000-0  30705-4 0  9991
2 22285  71.0219  22.4703 0003966 186.5536 173.5536 14.15066396493813
Epoch (UTC): 08 December 2021 02:20:49
Eccentricity: 0.0003966
inclination: 71.0219°
perigee height: 839 km
apogee height: 845 km
right ascension of ascending node: 22.4703°
argument of perigee: 186.5536°
revolutions per day: 14.15066396
mean anomaly at epoch: 173.5536°
orbit number at epoch: 49381

The dashed part of the orbit path shows where the satellite is in the earth's shadow,  

DLR